Location: Camps Bay
(33.9517°S, 18.3844°E)
Time: 09:28:00
(UTC+00:00)

Cosmos 1833 Rocket - Pass Details

Date: 18 January 2020
Orbit: 831 x 841 km, 71.0° (Epoch: 27 February)

Event Time Altitude Azimuth Distance (km) Brightness Sun altitude
Exits shadow 01:47:21 38° 277° (W) 1,261 3.2 -21.9°
Maximum altitude 01:48:33 43° 245° (WSW) 1,165 3.2 -21.7°
Drops below altitude 10° 01:53:57 10° 173° (S) 2,473 5.8 -21.0°
Sets 01:56:33 0° 166° (SSE) 3,412 6.8 -20.6°
